Temperature
16 17 17 17 17 17 17 17 17 17 17 17 17 17 17 17 17 17 17 17 17 17 17 17 17 17 17 17 17 16 16 16 16 15 15 15 15 15 14 14 14 14 14
16 17 17 17 17 17 17 17 17 17 17 17 17 17 17 17 17 17 17 17 17 17 17 17 17 16 16 16 16 16 16 16 15 15 15 15 14 14 14 14 14 14 14
16 16 17 17 17 17 17 17 17 17 17 17 17 17 17 17 17 17 17 17 17 17 17 16 16 16 16 16 16 16 16 15 15 15 15 14 14 14 14 14 14 14 14
16 16 17 17 17 17 17 17 17 17 17 17 17 17 17 17 17 17 17 17 17 17 16 16 16 16 16 16 16 16 16 15 15 15 14 14 14 14 14 14 14 14 13
16 16 16 17 17 17 17 17 17 17 17 17 17 17 17 17 16 16 17 17 16 16 16 16 16 16 16 16 16 16 15 15 15 14 14 14 14 14 14 14 14 13 13
16 16 16 16 17 17 17 17 17 17 17 16 16 16 16 16 16 16 16 16 16 16 16 16 16 16 16 16 16 16 15 15 14 14 14 14 13 13 13 13 13 13 13
16 16 16 16 16 16 16 17 17 16 16 16 16 16 16 16 16 16 16 16 16 16 16 16 16 16 16 16 16 15 15 15 14 14 13 14 13 13 13 13 13 13 13
15 15 15 15 16 16 16 16 16 16 16 16 16 16 16 16 16 16 16 16 16 16 16 16 15 15 15 15 15 15 15 14 14 14 13 13 13 13 13 13 13 13 13
15 15 15 15 15 15 15 16 16 16 16 16 16 16 16 16 16 15 16 16 16 15 15 15 15 15 15 15 15 15 15 14 14 13 13 13 13 13 13 13 13 13 13
14 14 14 14 14 15 15 15 15 15 15 16 16 16 15 15 15 15 15 15 15 15 15 15 15 15 15 15 15 15 14 14 14 13 13 13 13 13 13 13 13 13 13
14 14 13 13 14 14 14 14 14 14 15 15 15 15 15 15 15 15 15 15 15 15 15 15 14 15 15 14 14 14 14 14 14 13 13 13 13 13 13 13 13 13 12
13 13 13 13 13 13 13 14 14 14 14 14 14 14 14 14 14 14 14 14 14 14 14 14 14 14 14 14 14 14 14 14 13 13 13 13 13 13 13 13 13 12 12
13 13 12 12 12 13 13 13 13 13 13 14 14 14 14 14 14 14 14 14 14 14 14 14 14 14 14 14 14 14 14 14 13 13 13 13 13 13 13 13 13 12 12
12 12 12 12 12 12 12 12 12 13 13 13 13 13 13 13 13 13 13 13 13 13 13 13 13 14 14 14 13 13 13 13 13 13 13 13 13 13 13 12 12 12 12
12 12 11 11 11 11 12 12 12 12 12 12 12 12 12 12 12 12 12 12 13 13 13 13 13 13 13 13 13 13 13 13 13 13 13 13 13 13 13 12 12 12 12
12 11 11 11 11 11 11 11 11 11 11 11 12 12 12 12 12 12 12 12 12 12 12 12 12 12 12 12 12 12 13 13 13 13 13 13 13 13 12 12 12 12 12
11 11 11 10 10 10 10 11 11 11 11 11 11 11 11 11 11 11 11 11 11 11 11 12 12 12 12 12 12 12 12 12 13 13 12 12 12 12 12 12 12 12 12
11 11 10 10 10 10 10 10 10 10 10 10 10 10 10 10 10 10 11 11 11 11 11 11 11 11 11 12 12 12 12 12 12 12 12 12 12 12 12 12 12 12 12
11 10 10 10 10 10 10 10 10 9 9 10 10 10 10 10 10 10 10 10 10 10 10 10 10 10 11 11 11 11 11 12 12 12 12 12 12 12 12 12 11 12 11
10 10 10 9 9 9 9 9 9 9 9 9 9 9 9 9 9 9 9 9 9 9 9 9 10 10 10 10 10 11 11 11 11 11 11 11 12 11 11 11 11 11 11
10 10 9 9 9 9 9 9 9 9 9 9 9 9 9 9 9 8 8 8 8 8 9 9 9 9 9 9 9 10 10 10 11 11 11 11 11 11 11 11 11 11 11
10 9 9 9 8 8 8 8 8 8 8 8 8 8 8 8 8 8 8 8 8 8 8 8 8 8 9 9 9 9 9 9 10 10 10 10 11 11 11 11 11 11 11
9 9 9 8 8 8 8 8 7 7 7 7 8 8 8 8 8 8 7 7 7 7 7 8 7 8 8 8 8 8 8 9 9 9 10 10 10 10 10 10 10 10 10
9 9 8 8 8 8 7 7 7 7 7 7 7 7 7 7 7 7 7 7 7 7 7 7 7 7 7 8 8 8 8 8 8 9 9 9 10 10 10 10 10 10 10
9 9 8 8 8 7 7 7 7 7 7 7 7 7 7 7 7 7 7 7 6 6 6 7 7 7 7 7 7 7 8 8 8 8 8 9 9 9 9 9 10 10 10
9 8 8 8 7 7 7 7 7 7 7 6 6 6 6 6 6 6 6 6 6 6 6 6 6 6 7 7 7 7 7 7 8 8 8 8 8 9 9 9 9 9 9
Wind_Speed
4 8 10 9 9 8 6 5 4 4 4 3 3 3 4 4 5 5 5 6 6 6 6 7 7 6 7 7 7 8 9 9 10 11 11 11 10 10 10 10 11 11 13
5 10 11 10 9 9 8 6 5 4 3 2 2 2 2 3 4 5 5 6 6 6 6 6 7 6 7 8 8 8 8 9 10 10 10 9 9 9 9 10 11 10 12
7 11 11 10 10 9 8 7 6 5 3 2 2 1 2 2 3 4 5 6 6 6 6 6 7 7 7 8 8 8 8 8 9 9 9 7 8 9 9 10 11 11 12
7 10 10 10 10 10 9 8 7 6 4 2 1 1 1 2 3 3 4 5 6 6 6 6 6 7 7 8 9 9 8 8 8 7 6 7 8 9 10 10 11 11 11
7 10 10 10 9 9 9 8 7 6 5 3 2 1 0 1 2 3 4 5 6 7 7 7 6 6 7 8 9 9 9 8 7 5 4 6 9 10 10 10 11 11 11
6 9 9 9 8 8 8 7 7 6 5 4 3 2 1 1 2 3 4 5 5 6 7 7 8 8 8 9 9 9 10 9 6 5 4 6 9 11 11 11 11 11 11
6 7 7 7 6 6 7 6 6 6 4 4 3 2 2 2 2 3 4 5 5 6 7 8 8 9 8 9 10 10 10 9 7 4 5 6 10 12 11 11 11 11 11
5 5 5 5 5 5 5 5 5 5 4 3 3 2 2 3 3 3 4 5 6 6 7 8 9 9 10 9 10 11 11 9 8 6 5 8 11 12 11 10 11 11 10
5 4 4 3 3 3 4 4 4 4 4 3 3 3 4 4 4 5 5 5 6 7 7 8 9 10 10 11 10 11 12 10 7 5 6 8 12 12 11 11 11 11 10
4 4 3 4 5 4 3 3 4 3 3 3 3 4 5 5 5 5 6 6 7 8 8 9 10 10 10 11 11 11 12 10 8 6 6 9 13 13 12 12 11 11 11
3 3 4 4 4 5 4 3 3 3 3 4 3 4 3 3 3 4 5 6 8 9 9 10 10 11 11 11 13 12 11 8 8 6 7 12 14 13 13 13 12 11 11
3 3 4 4 4 4 4 4 4 4 4 4 4 4 3 3 3 4 3 5 7 9 10 10 10 10 9 8 10 12 9 9 8 7 9 14 15 15 14 14 13 13 12
3 4 3 3 3 3 3 2 2 3 3 4 4 4 4 3 3 2 1 2 3 5 5 6 7 7 7 6 7 9 10 9 7 8 10 16 16 16 16 15 14 14 14
2 3 3 3 2 2 3 2 1 1 1 2 3 4 2 1 1 2 1 2 2 2 3 3 4 6 7 7 8 8 9 7 7 7 11 17 17 17 17 17 15 15 15
1 2 2 2 1 1 1 2 2 1 1 2 3 4 3 1 1 2 2 2 2 2 3 3 4 5 6 7 8 8 8 8 7 8 9 16 17 17 18 18 17 16 16
0 1 2 2 1 1 1 2 2 2 2 2 2 4 4 2 1 2 3 2 2 3 3 3 4 4 5 5 7 7 7 8 8 8 9 13 17 17 18 19 18 18 17
1 1 1 1 2 2 2 2 2 2 2 1 2 4 4 3 2 2 3 3 2 3 3 3 4 3 4 5 6 7 6 7 7 8 9 11 13 16 17 18 19 19 19
1 1 1 1 2 2 2 2 2 2 2 2 2 3 4 4 3 2 2 3 3 2 2 3 3 3 4 4 5 5 5 5 6 7 8 10 11 12 15 18 19 20 20
1 1 1 1 1 2 2 2 2 2 2 2 2 2 3 4 4 2 3 3 3 3 3 4 4 3 4 4 5 5 5 5 6 6 8 9 11 11 12 15 18 19 20
2 1 1 1 1 2 2 2 2 2 2 2 2 3 4 4 4 2 3 3 3 3 3 4 4 4 4 4 5 5 4 5 5 6 7 8 9 12 13 13 14 15 18
3 2 1 1 2 2 2 2 2 3 3 3 3 4 4 5 5 3 3 3 3 4 5 5 4 5 4 3 2 3 4 5 6 5 5 6 8 9 11 12 12 12 13
2 2 2 2 2 3 2 2 3 3 3 4 4 4 5 5 5 4 4 4 4 4 5 5 4 4 4 3 2 2 3 3 5 6 6 7 7 7 8 10 11 11 11
1 1 2 2 3 4 3 3 3 3 3 3 4 4 5 5 5 5 5 5 5 5 5 6 5 6 5 5 4 3 3 4 2 4 6 7 7 7 7 8 10 11 12
2 2 2 3 4 4 4 4 4 4 5 5 4 5 5 6 6 6 6 5 5 5 6 7 6 5 6 6 5 5 4 3 3 2 3 5 7 8 8 8 8 10 11
3 3 3 4 5 5 5 5 6 6 5 5 5 6 6 6 6 7 6 6 6 6 6 7 7 7 6 6 5 5 5 4 4 3 4 5 5 6 8 8 8 8 10
2 2 3 5 6 5 5 6 7 7 7 6 6 6 6 5 5 7 6 6 6 6 7 7 8 8 8 7 7 6 5 5 5 4 5 6 6 5 6 7 8 8 10
Wind_Direction
52 77 67 52 48 51 61 72 89 93 99 108 118 125 132 140 148 151 148 146 143 144 146 146 147 144 139 131 121 113 111 109 109 106 107 109 107 105 105 104 98 94 100
66 80 70 54 48 47 53 61 66 76 84 94 115 138 154 156 158 167 168 164 165 166 163 160 157 152 150 142 134 129 127 124 118 118 117 116 116 114 110 106 103 102 103
67 73 69 56 49 43 45 50 54 59 71 78 102 144 177 177 184 182 186 183 183 182 176 175 168 162 157 153 147 145 141 140 137 136 135 130 130 127 119 114 112 112 107
69 73 68 60 51 44 42 44 46 46 45 47 62 124 184 199 212 207 204 201 197 190 181 173 168 167 161 159 157 154 154 155 155 156 153 145 139 135 130 124 120 117 114
70 77 71 63 52 45 41 39 41 41 36 28 28 37 172 209 213 217 216 208 204 199 189 180 169 164 166 163 163 164 165 167 166 164 150 130 130 137 135 132 128 125 121
65 77 76 68 55 46 40 35 34 33 32 25 17 3 311 261 236 231 226 219 215 205 194 187 180 173 170 172 173 174 177 178 180 183 166 136 133 142 139 138 134 134 131
50 68 77 71 62 52 42 34 31 26 22 20 11 355 319 279 257 244 234 224 219 214 205 196 186 181 177 181 184 186 186 189 188 188 154 136 137 148 147 146 143 142 138
45 64 81 76 66 56 47 37 29 22 15 6 351 328 307 276 255 249 238 232 227 221 214 206 198 189 186 187 194 194 194 196 196 193 158 145 148 153 157 158 155 150 146
36 49 65 69 60 48 43 37 29 10 359 349 328 300 283 273 257 243 238 232 229 222 220 215 208 202 198 195 198 202 200 202 209 191 172 155 158 163 167 166 163 159 156
35 36 45 44 38 26 17 21 18 349 332 326 309 295 285 276 265 246 235 231 231 224 222 221 216 209 204 198 199 205 203 205 210 207 172 161 166 174 175 172 170 168 164
36 38 40 34 27 11 357 8 349 337 325 318 313 308 304 299 287 267 243 234 229 227 226 222 218 213 207 202 199 201 201 207 203 200 178 172 175 183 183 180 178 177 172
29 37 48 38 16 1 355 356 342 351 350 341 346 344 329 318 305 298 275 251 239 233 229 224 221 211 200 195 199 197 205 209 202 191 180 177 185 191 190 186 183 183 181
33 39 48 37 14 358 337 342 349 351 348 345 347 345 333 334 327 327 303 261 246 235 223 222 212 204 195 190 193 201 211 206 200 187 179 182 190 197 196 192 190 189 188
46 52 49 33 10 358 346 323 321 339 337 338 334 331 334 316 313 299 260 235 226 221 217 209 209 213 208 201 198 205 212 211 197 184 180 184 190 199 200 199 197 195 192
36 65 61 39 24 357 326 303 327 318 322 328 333 323 324 306 301 288 275 248 243 238 220 229 231 223 217 212 208 209 211 213 201 188 180 185 188 197 203 203 202 199 196
48 75 65 36 29 357 333 311 304 308 310 329 334 323 322 317 288 291 285 268 258 238 224 233 241 237 229 223 218 214 213 212 204 187 180 189 191 196 205 207 205 203 200
155 87 60 18 8 343 329 312 309 302 312 291 289 311 313 316 308 293 287 278 262 256 253 255 255 246 244 237 230 225 217 214 208 195 184 187 192 199 205 210 210 207 204
140 118 101 357 351 323 312 295 292 300 303 285 295 303 302 300 302 295 286 280 275 261 254 263 262 257 247 240 237 234 228 217 214 204 191 188 190 197 205 213 214 210 207
145 145 168 164 299 298 282 270 275 283 286 282 289 287 290 288 287 275 271 273 277 271 260 261 265 260 254 246 242 236 229 221 218 211 201 193 193 195 198 209 214 213 210
152 160 202 199 257 282 277 276 281 284 288 286 277 275 281 279 277 268 260 261 270 268 264 255 257 261 256 246 253 247 234 231 224 220 210 200 195 195 198 203 206 211 210
165 185 224 243 267 277 269 275 270 265 274 279 266 270 275 278 276 255 262 254 256 258 257 257 259 257 258 247 255 260 254 237 224 223 221 208 201 197 195 198 200 200 203
181 192 239 244 258 267 252 246 242 246 247 248 253 254 254 261 265 261 254 253 250 255 259 258 256 256 256 227 222 234 250 246 230 223 217 214 207 198 199 198 194 195 197
179 203 275 275 273 267 256 250 259 263 263 260 262 253 246 249 252 251 250 250 246 245 252 254 248 245 248 236 215 212 220 229 246 228 220 217 210 208 205 199 197 193 194
201 199 252 266 268 264 261 253 252 256 258 259 253 251 250 244 244 247 247 247 245 245 248 253 253 250 242 237 233 236 238 243 224 237 233 222 217 213 207 206 203 197 194
202 208 233 256 261 260 258 255 252 255 254 256 261 260 256 249 239 239 240 242 245 247 246 248 251 248 245 240 235 237 241 243 241 233 236 223 222 218 211 207 204 199 194
220 225 243 258 262 261 256 256 252 254 258 263 266 261 257 253 245 240 239 240 246 250 248 247 246 244 246 247 240 235 227 222 223 226 229 220 221 224 214 209 204 200 195
Height
1495 1493 1493 1493 1494 1495 1495 1496 1498 1499 1500 1501 1502 1503 1504 1505 1506 1507 1508 1508 1509 1510 1511 1511 1512 1512 1513 1513 1513 1514 1514 1514 1515 1515 1515 1516 1516 1517 1517 1517 1518 1518 1518
1495 1493 1493 1493 1494 1495 1496 1497 1498 1499 1500 1501 1502 1502 1503 1505 1506 1506 1507 1508 1509 1510 1511 1511 1512 1513 1513 1513 1514 1514 1514 1515 1515 1515 1516 1516 1517 1517 1517 1518 1518 1519 1519
1494 1493 1493 1494 1494 1495 1496 1497 1497 1498 1499 1500 1501 1502 1503 1504 1505 1506 1507 1508 1509 1510 1510 1511 1512 1512 1513 1513 1513 1514 1515 1515 1515 1516 1516 1516 1517 1517 1518 1518 1519 1519 1519
1494 1493 1493 1493 1494 1495 1496 1496 1497 1498 1499 1500 1500 1501 1502 1503 1504 1505 1506 1507 1508 1509 1510 1510 1511 1512 1512 1513 1513 1514 1514 1515 1516 1516 1516 1516 1517 1517 1518 1518 1519 1519 1520
1494 1493 1493 1493 1494 1494 1495 1496 1496 1497 1498 1499 1499 1500 1501 1502 1503 1504 1505 1506 1507 1508 1508 1509 1510 1511 1511 1512 1513 1513 1514 1515 1515 1516 1516 1517 1517 1517 1518 1518 1518 1519 1519
1493 1492 1492 1493 1493 1493 1494 1495 1495 1496 1497 1498 1498 1499 1500 1500 1501 1502 1503 1504 1505 1506 1507 1508 1508 1509 1510 1511 1511 1512 1513 1514 1514 1515 1516 1516 1517 1517 1517 1518 1518 1519 1519
1492 1491 1491 1492 1492 1492 1493 1493 1494 1495 1495 1496 1497 1497 1498 1499 1500 1500 1501 1502 1503 1504 1505 1506 1507 1507 1508 1509 1510 1511 1512 1512 1513 1514 1515 1516 1516 1517 1517 1517 1518 1518 1519
1491 1491 1490 1490 1491 1491 1491 1492 1492 1493 1493 1494 1495 1495 1496 1497 1497 1498 1499 1500 1501 1502 1503 1503 1504 1505 1506 1507 1508 1509 1510 1511 1512 1513 1514 1514 1515 1516 1516 1517 1517 1518 1518
1490 1489 1489 1489 1489 1489 1489 1490 1490 1491 1491 1492 1492 1493 1493 1494 1495 1496 1496 1497 1498 1499 1500 1501 1502 1503 1503 1504 1505 1506 1507 1508 1509 1511 1512 1512 1513 1514 1515 1516 1516 1517 1517
1488 1488 1488 1487 1487 1487 1487 1488 1488 1488 1489 1489 1489 1490 1491 1491 1492 1492 1493 1494 1495 1496 1497 1498 1499 1500 1500 1501 1502 1504 1505 1506 1507 1508 1510 1510 1511 1512 1513 1514 1515 1516 1516
1487 1487 1486 1485 1485 1485 1485 1485 1486 1486 1486 1486 1487 1487 1488 1488 1489 1489 1490 1491 1492 1493 1493 1494 1495 1496 1497 1498 1499 1500 1502 1503 1504 1505 1507 1508 1509 1510 1511 1512 1513 1514 1515
1485 1485 1484 1483 1483 1483 1483 1483 1483 1483 1484 1484 1484 1485 1485 1485 1486 1487 1487 1488 1488 1489 1490 1491 1492 1493 1494 1494 1495 1497 1498 1499 1501 1502 1504 1505 1507 1508 1509 1510 1511 1512 1513
1483 1482 1482 1481 1481 1481 1481 1481 1481 1481 1481 1482 1482 1482 1482 1482 1483 1483 1484 1484 1485 1486 1487 1487 1488 1488 1489 1490 1491 1493 1494 1496 1498 1499 1500 1502 1503 1505 1506 1507 1508 1509 1510
1481 1480 1479 1479 1479 1478 1478 1478 1478 1478 1479 1479 1479 1479 1479 1479 1480 1480 1480 1481 1481 1482 1482 1483 1484 1485 1485 1486 1488 1489 1491 1492 1494 1495 1496 1498 1500 1501 1503 1504 1505 1506 1507
1478 1478 1477 1477 1476 1476 1476 1475 1476 1476 1476 1476 1476 1476 1476 1476 1476 1477 1477 1477 1478 1478 1478 1479 1480 1481 1482 1482 1484 1485 1487 1488 1490 1491 1492 1494 1495 1497 1499 1501 1502 1503 1504
1476 1476 1475 1475 1474 1474 1473 1473 1473 1474 1473 1473 1473 1473 1473 1473 1473 1473 1474 1474 1474 1474 1474 1475 1476 1477 1478 1479 1479 1481 1482 1484 1485 1487 1488 1489 1491 1493 1495 1497 1498 1499 1500
1473 1473 1473 1473 1472 1472 1471 1471 1471 1470 1470 1470 1470 1470 1470 1470 1469 1469 1470 1470 1470 1471 1471 1471 1472 1473 1474 1475 1475 1476 1477 1479 1481 1482 1483 1484 1486 1488 1490 1492 1494 1495 1496
1470 1470 1470 1470 1469 1469 1468 1468 1468 1467 1467 1467 1467 1467 1467 1466 1466 1466 1466 1466 1467 1467 1467 1467 1468 1469 1469 1470 1471 1471 1472 1474 1475 1476 1478 1479 1481 1483 1485 1487 1489 1491 1492
1468 1467 1467 1467 1467 1466 1465 1465 1465 1464 1464 1464 1463 1463 1463 1463 1462 1462 1462 1462 1463 1463 1463 1463 1464 1465 1465 1465 1466 1467 1467 1468 1469 1471 1472 1474 1475 1477 1480 1482 1484 1486 1487
1464 1465 1464 1464 1464 1463 1462 1461 1461 1461 1460 1460 1460 1459 1460 1459 1459 1458 1457 1458 1458 1458 1459 1459 1459 1460 1460 1461 1461 1461 1462 1462 1464 1465 1467 1468 1470 1472 1474 1477 1479 1480 1482
1461 1462 1461 1461 1460 1459 1458 1457 1456 1456 1455 1455 1455 1455 1455 1455 1455 1454 1453 1453 1453 1453 1454 1454 1454 1455 1455 1457 1457 1456 1456 1457 1457 1459 1462 1463 1464 1466 1468 1471 1473 1475 1477
1458 1458 1458 1458 1457 1456 1455 1453 1453 1452 1451 1451 1451 1451 1451 1451 1451 1450 1449 1448 1448 1449 1449 1449 1450 1450 1450 1452 1452 1452 1451 1452 1451 1453 1455 1457 1459 1461 1462 1465 1467 1469 1471
1455 1455 1455 1454 1454 1453 1451 1450 1449 1448 1447 1447 1446 1446 1446 1446 1446 1446 1445 1444 1444 1444 1443 1444 1444 1444 1445 1446 1447 1448 1447 1445 1446 1447 1449 1451 1453 1455 1456 1458 1461 1463 1465
1452 1452 1451 1451 1450 1449 1448 1446 1445 1444 1442 1442 1441 1441 1441 1441 1441 1441 1440 1439 1438 1438 1438 1438 1439 1439 1440 1440 1441 1442 1443 1442 1443 1442 1443 1445 1447 1449 1451 1452 1454 1457 1459
1449 1448 1448 1447 1446 1444 1443 1442 1441 1440 1438 1437 1437 1436 1435 1435 1435 1435 1435 1434 1433 1432 1432 1433 1433 1433 1434 1434 1434 1435 1437 1438 1438 1437 1437 1439 1441 1443 1445 1447 1448 1450 1452
1445 1445 1444 1442 1441 1440 1438 1437 1436 1435 1434 1432 1431 1430 1430 1429 1429 1429 1428 1428 1427 1426 1426 1426 1426 1427 1427 1427 1428 1429 1430 1431 1431 1432 1432 1433 1434 1436 1439 1440 1442 1444 1446